1508403600.1,19854,19.25,73886.8,9.01,-30.11,-32.23,0,*77
1508403601.36,19855,19.31,73888.0,9.01,-30.11,-32.19,0,*7F
1508403602.57,19856,19.31,73886.3,8.99,-30.33,-32.29,0,*7F
1508403603.82,19857,19.25,73886.8,8.97,-30.83,-32.79,0,*7E
1508403605.07,19858,19.25,73884.0,8.99,-30.51,-32.45,0,*7F
1508403606.31,19859,19.31,73886.3,8.97,-30.01,-32.13,0,*76
1508403607.55,19860,19.25,73886.0,8.99,-30.17,-32.29,0,*7C
1508403608.82,19861,19.31,73884.8,8.97,-30.17,-32.29,0,*73
1508403610.04,19862,19.31,73888.0,8.99,-30.33,-32.45,0,*72
1508403611.28,19863,19.25,73890.3,8.97,-30.33,-32.29,0,*77
1508403612.49,19864,19.25,73884.5,8.99,-31.01,-32.97,0,*7B
1508403613.77,19865,19.25,73884.8,8.97,-30.73,-32.79,0,*70
1508403615.04,19866,19.31,73884.5,8.97,-30.89,-32.97,0,*76
1508403616.26,19867,19.25,73884.0,8.95,-30.89,-33.21,0,*79
1508403617.47,19868,19.31,73884.5,8.95,-30.23,-32.29,0,*7F
1508403618.69,19869,19.25,73884.3,8.95,-30.39,-32.51,0,*7A
1508403619.91,19870,19.31,73888.5,8.95,-30.51,-32.69,0,*77
1508403621.15,19871,19.25,73886.5,8.93,-30.55,-32.57,0,*79
1508403622.4,19872,19.25,73884.5,8.97,-29.95,-32.07,0,*7F
1508403623.63,19873,19.25,73880.3,8.97,-29.83,-32.13,0,*7C
1508403624.9,19874,19.25,73884.0,8.97,-29.29,-31.39,0,*70
1508403626.14,19875,19.25,73884.5,8.99,-29.29,-31.57,0,*77
1508403627.37,19876,19.25,73880.8,8.99,-28.79,-31.01,0,*73
1508403628.56,19877,19.25,73882.3,8.99,-28.37,-30.27,0,*7D
1508403629.81,19878,19.25,73884.0,9.01,-27.89,-30.05,0,*78
1508403631.04,19879,19.25,73884.3,9.03,-27.89,-29.89,0,*77
1508403632.28,19880,19.25,73888.0,9.05,-27.29,-29.17,0,*7A
1508403633.51,19881,19.25,73888.3,9.09,-26.87,-28.91,0,*7D
1508403634.76,19882,19.25,73888.0,9.13,-26.97,-29.01,0,*7C
1508403635.99,19883,19.25,73888.8,9.15,-27.67,-29.57,0,*76
1508403637.25,19884,19.25,73892.5,9.15,-27.61,-29.57,0,*77
1508403638.5,19885,19.25,73892.5,9.15,-27.61,-29.57,0,*76
1508403639.71,19886,19.25,73890.5,9.17,-27.51,-29.57,0,*74
1508403640.97,19887,19.25,73890.3,9.21,-26.97,-28.91,0,*70
1508403642.21,19888,19.25,73892.5,9.21,-27.23,-29.13,0,*7A
1508403643.47,19889,19.25,73890.5,9.23,-26.81,-28.85,0,*7E
1508403644.71,19890,19.25,73888.5,9.25,-27.35,-29.35,0,*74
1508403645.99,19891,19.25,73892.3,9.31,-26.77,-28.75,0,*72
1508403647.25,19892,19.25,73884.8,9.31,-26.93,-28.75,0,*7B
1508403648.45,19893,19.25,73886.0,9.33,-27.51,-29.57,0,*76
1508403649.69,19894,19.25,73890.5,9.33,-28.69,-30.77,0,*7F
1508403650.93,19895,19.25,73890.3,9.35,-28.75,-31.01,0,*75
1508403652.18,19896,19.25,73892.3,9.33,-29.73,-31.85,0,*7B
1508403653.38,19897,19.25,73888.5,9.33,-30.33,-32.39,0,*72
1508403654.61,19898,19.25,73890.8,9.33,-29.95,-32.07,0,*74
1508403655.83,19899,19.25,73888.5,9.31,-29.61,-31.79,0,*76
1508403657.11,19900,19.25,73888.8,9.27,-30.17,-32.29,0,*7F
1508403658.33,19901,19.25,73884.5,9.31,-30.11,-32.13,0,*76
1508403659.59,19902,19.25,73884.5,9.31,-30.39,-32.63,0,*78
1508403660.85,19903,19.25,73884.3,9.27,-31.61,-33.67,0,*77
1508403662.05,19904,19.25,73882.5,9.25,-30.27,-32.51,0,*75
1508403663.31,19905,19.25,73886.5,9.25,-30.73,-32.85,0,*7C
1508403664.53,19906,19.19,73880.8,9.25,-29.89,-32.13,0,*7D
1508403665.76,19907,19.19,73884.0,9.23,-30.33,-32.39,0,*7B
1508403667.02,19908,19.19,73882.8,9.23,-29.95,-32.07,0,*7D
1508403668.27,19909,19.19,73884.3,9.23,-30.77,-32.91,0,*77
1508403669.49,19910,19.25,73886.5,9.21,-30.51,-32.57,0,*73
1508403670.72,19911,19.25,73882.8,9.21,-30.11,-32.19,0,*7C
1508403671.99,19912,19.19,73882.0,9.23,-30.05,-32.19,0,*78
1508403673.21,19913,19.19,73884.0,9.23,-30.45,-32.39,0,*7F
1508403674.47,19914,19.19,73880.3,9.23,-30.83,-33.09,0,*70
1508403675.7,19915,19.19,73880.8,9.19,-31.45,-33.67,0,*7B
1508403676.93,19916,19.19,73882.8,9.19,-31.45,-33.67,0,*78
1508403678.13,19917,19.19,73882.0,9.17,-30.33,-32.51,0,*73
1508403679.33,19918,19.19,73882.0,9.17,-30.23,-32.35,0,*7F
1508403680.55,19919,19.19,73880.3,9.17,-30.05,-32.13,0,*7E
1508403681.8,19920,19.19,73880.0,9.17,-29.73,-31.85,0,*71
1508403683.05,19921,19.19,73880.5,9.15,-30.17,-32.35,0,*70
1508403684.28,19922,19.19,73880.0,9.17,-29.13,-31.05,0,*7D
1508403685.53,19923,19.19,73882.5,9.19,-28.09,-30.27,0,*79
1508403686.73,19924,19.19,73884.0,9.21,-27.51,-29.45,0,*7B
1508403687.96,19925,19.19,73880.8,9.23,-27.67,-29.61,0,*7B
1508403689.23,19926,19.19,73884.8,9.23,-28.43,-30.51,0,*7A
1508403690.45,19927,19.19,73884.3,9.25,-30.01,-32.13,0,*76
1508403691.69,19928,19.19,73884.3,9.25,-29.35,-31.45,0,*76
1508403692.89,19929,19.19,73884.3,9.25,-29.57,-31.67,0,*73
1508403694.15,19930,19.19,73890.0,9.27,-27.67,-29.73,0,*78
1508403695.4,19931,19.19,73888.5,9.27,-29.07,-31.23,0,*7D
1508403696.62,19932,19.19,73888.8,9.31,-30.11,-32.23,0,*75
1508403697.88,19933,19.19,73886.3,9.27,-29.89,-32.13,0,*79
1508403699.13,19934,19.19,73886.3,9.25,-30.61,-32.85,0,*7D
1508403700.38,19935,19.19,73886.8,9.23,-31.17,-33.43,0,*71
1508403701.63,19936,19.19,73884.3,9.23,-30.77,-32.91,0,*7B
1508403702.92,19937,19.19,73886.0,9.23,-31.11,-33.43,0,*75
1508403704.17,19938,19.19,73886.8,9.23,-31.17,-33.43,0,*7C
1508403705.44,19939,19.19,73886.5,9.19,-30.55,-32.79,0,*7B
1508403706.72,19940,19.19,73888.8,9.19,-30.01,-32.07,0,*7D
1508403707.95,19941,19.19,73886.3,9.21,-29.61,-31.91,0,*75
1508403709.2,19942,19.19,73884.0,9.19,-31.05,-33.31,0,*7E
1508403710.42,19943,19.19,73884.5,9.19,-31.01,-33.15,0,*7D
1508403711.68,19944,19.19,73886.3,9.19,-30.55,-32.63,0,*7A
1508403712.91,19945,19.19,73886.3,9.21,-29.79,-31.91,0,*78
1508403714.16,19946,19.19,73890.0,9.19,-30.01,-32.13,0,*7E
1508403715.42,19947,19.19,73890.0,9.19,-29.67,-31.95,0,*7A
1508403716.66,19948,19.19,73888.3,9.19,-30.01,-32.13,0,*70
1508403717.92,19949,19.19,73884.8,9.19,-29.83,-31.91,0,*7A
1508403719.15,19950,19.19,73880.8,9.21,-29.45,-31.57,0,*79
1508403720.39,19951,19.19,73884.5,9.21,-28.69,-30.77,0,*74
1508403721.64,19952,19.19,73884.3,9.21,-28.59,-30.51,0,*70
1508403722.89,19953,19.19,73884.0,9.21,-30.05,-32.19,0,*7F
1508403724.14,19954,19.19,73884.5,9.23,-28.43,-30.33,0,*7B
1508403725.36,19955,19.13,73882.5,9.25,-27.77,-29.73,0,*78
1508403726.61,19956,19.19,73886.8,9.27,-27.83,-29.83,0,*7D
1508403727.89,19957,19.13,73880.5,9.31,-27.39,-29.35,0,*77
1508403729.16,19958,19.13,73882.8,9.31,-26.93,-28.91,0,*76
1508403730.43,19959,19.13,73882.3,9.35,-26.55,-28.43,0,*76
1508403731.67,19960,19.13,73882.3,9.35,-26.55,-28.69,0,*74
1508403732.89,19961,19.13,73888.3,9.37,-27.77,-30.05,0,*75
1508403734.12,19962,19.13,73890.8,9.41,-27.77,-29.95,0,*76
1508403735.38,19963,19.13,73890.8,9.41,-28.97,-31.11,0,*73
1508403736.65,19964,19.19,73888.8,9.41,-27.99,-30.01,0,*75
1508403737.89,19965,19.13,73886.8,9.43,-27.93,-30.01,0,*7C
1508403739.09,19966,19.13,73886.8,9.43,-28.97,-31.05,0,*71
1508403740.35,19967,19.13,73886.5,9.41,-29.35,-31.17,0,*78
1508403741.57,19968,19.13,73886.5,9.43,-28.69,-30.67,0,*7B
1508403742.79,19969,19.13,73884.8,9.43,-27.23,-29.07,0,*75
1508403744.04,19970,19.13,73884.5,9.45,-26.49,-28.43,0,*77
1508403745.27,19971,19.13,73884.8,9.47,-26.33,-28.31,0,*7C
1508403746.52,19972,19.13,73886.0,9.53,-26.39,-28.25,0,*75
1508403747.77,19973,19.13,73886.5,9.53,-26.97,-28.97,0,*79
1508403749.0,19974,19.13,73884.3,9.55,-26.93,-28.97,0,*7C
1508403750.21,19975,19.13,73888.3,9.57,-26.87,-28.97,0,*7A
1508403751.47,19976,19.13,73890.8,9.59,-26.97,-29.01,0,*78
1508403752.72,19977,19.13,73894.3,9.61,-27.93,-29.73,0,*72
1508403754.0,19978,19.13,73890.5,9.61,-27.61,-29.51,0,*70
1508403755.23,19979,19.13,73890.8,9.63,-28.43,-30.67,0,*71
1508403756.46,19980,19.13,73888.0,9.63,-29.01,-31.05,0,*75
1508403757.72,19981,19.13,73888.0,9.63,-29.35,-31.23,0,*77
1508403758.94,19982,19.13,73890.5,9.63,-28.53,-30.55,0,*75
1508403760.17,19983,19.13,73888.8,9.63,-28.53,-30.39,0,*7E
1508403761.39,19984,19.13,73888.8,9.63,-28.53,-30.51,0,*77
1508403762.65,19985,19.13,73890.0,9.65,-29.29,-31.29,0,*72
1508403763.87,19986,19.13,73884.0,9.63,-27.83,-29.83,0,*70
1508403765.06,19987,19.13,73890.0,9.63,-27.89,-29.83,0,*7B
1508403766.31,19988,19.06,73884.3,9.63,-28.47,-30.51,0,*7E
1508403767.59,19989,19.13,73884.3,9.65,-28.09,-30.01,0,*76
1508403768.81,19990,19.13,73886.5,9.67,-27.89,-29.89,0,*73
1508403770.07,19991,19.13,73884.8,9.69,-28.21,-30.27,0,*7D
1508403771.29,19992,19.13,73882.5,9.67,-27.71,-29.73,0,*73
1508403772.54,19993,19.13,73886.5,9.67,-27.99,-30.39,0,*72
1508403773.82,19994,19.13,73888.3,9.69,-28.75,-30.77,0,*7C
1508403775.05,19995,19.13,73886.8,9.67,-28.59,-30.67,0,*7C
1508403776.33,19996,19.06,73884.3,9.69,-29.17,-30.95,0,*77
1508403777.55,19997,19.06,73886.0,9.69,-27.51,-29.57,0,*7C
1508403778.74,19998,19.06,73884.8,9.71,-27.71,-29.61,0,*7D
1508403779.99,19999,19.06,73888.0,9.71,-26.93,-28.79,0,*79
1508403781.22,20000,19.06,73886.8,9.73,-26.49,-28.53,0,*77
1508403782.46,20001,19.06,73888.5,9.77,-26.61,-28.59,0,*72
1508403783.68,20002,19.13,73892.5,9.79,-27.19,-29.23,0,*7D
1508403784.9,20003,19.06,73888.8,9.81,-27.67,-29.79,0,*7D
1508403786.1,20004,19.06,73890.8,9.79,-29.57,-31.67,0,*76
1508403787.34,20005,19.06,73890.8,9.79,-29.35,-31.45,0,*73
1508403788.57,20006,19.06,73888.3,9.79,-29.95,-32.19,0,*70
1508403789.8,20007,19.06,73890.5,9.77,-31.05,-33.37,0,*72
1508403791.07,20008,19.06,73888.3,9.73,-31.57,-33.73,0,*7E
1508403792.3,20009,19.06,73888.3,9.71,-30.89,-32.91,0,*72
1508403793.54,20010,19.06,73888.8,9.71,-30.95,-33.09,0,*77
1508403794.73,20011,19.06,73888.0,9.67,-30.45,-32.57,0,*76
1508403795.93,20012,19.06,73884.8,9.67,-30.45,-32.51,0,*73
1508403797.16,20013,19.06,73882.8,9.69,-30.11,-32.23,0,*78
1508403798.36,20014,19.06,73886.8,9.67,-29.23,-31.33,0,*7A
1508403799.64,20015,19.06,73888.0,9.65,-28.79,-30.73,0,*72
1508403800.89,20016,19.06,73890.8,9.65,-29.61,-31.73,0,*78
1508403802.17,20017,19.06,73890.8,9.65,-29.29,-31.39,0,*7B
1508403803.37,20018,19.06,73892.3,9.67,-28.31,-30.45,0,*74
1508403804.62,20019,19.06,73890.8,9.69,-29.17,-31.17,0,*78
1508403805.82,20020,19.06,73890.0,9.67,-28.31,-30.45,0,*7F
1508403807.07,20021,19.06,73888.5,9.69,-28.21,-30.23,0,*71
1508403808.35,20022,19.06,73884.5,9.69,-27.39,-29.35,0,*7B
1508403809.57,20023,19.06,73888.0,9.71,-26.93,-28.85,0,*78
1508403810.83,20024,19.06,73888.5,9.73,-28.15,-30.17,0,*7F
1508403812.08,20025,19.06,73894.3,9.77,-27.61,-29.45,0,*79
1508403813.3,20026,19.06,73892.3,9.79,-27.19,-29.23,0,*7B
1508403814.5,20027,19.06,73894.3,9.79,-27.55,-29.45,0,*72
1508403815.73,20028,19.06,73892.8,9.79,-29.79,-31.61,0,*72
1508403816.93,20029,19.06,73890.3,9.79,-30.11,-32.35,0,*77
1508403818.17,20030,19.06,73884.5,9.77,-31.67,-33.89,0,*77
1508403819.42,20031,19.06,73884.5,9.73,-31.61,-33.95,0,*79
1508403820.66,20032,19.06,73886.0,9.71,-32.29,-34.65,0,*7F
1508403821.88,20033,19.06,73880.8,9.69,-31.67,-33.95,0,*76
1508403823.13,20034,19.06,73886.0,9.65,-32.35,-34.65,0,*71
1508403824.37,20035,19.06,73884.3,9.63,-32.29,-34.53,0,*7E
1508403825.59,20036,19.0,73880.3,9.63,-31.57,-33.95,0,*7A
1508403826.87,20037,19.06,73884.3,9.61,-31.57,-33.77,0,*75
1508403828.09,20038,19.06,73882.3,9.59,-31.85,-33.95,0,*72
1508403829.37,20039,19.0,73886.0,9.57,-31.85,-34.01,0,*77
1508403830.56,20040,19.06,73884.8,9.55,-32.13,-34.41,0,*73
1508403831.78,20041,19.0,73882.3,9.55,-31.85,-34.07,0,*7C
1508403833.03,20042,19.06,73884.8,9.49,-31.29,-33.61,0,*73
1508403834.28,20043,19.0,73880.0,9.49,-31.17,-33.27,0,*7D
1508403835.52,20044,19.0,73886.8,9.49,-32.19,-34.41,0,*70
1508403836.74,20045,19.0,73886.0,9.47,-31.61,-33.83,0,*7A
1508403838.0,20046,19.0,73886.0,9.45,-31.39,-33.67,0,*7C
1508403839.23,20047,19.0,73886.8,9.45,-32.57,-34.77,0,*70
1508403840.48,20048,19.0,73884.8,9.45,-31.17,-33.27,0,*7A
1508403841.7,20049,19.0,73886.3,9.41,-31.05,-33.15,0,*7D
1508403842.95,20050,19.06,73892.8,9.41,-31.01,-33.31,0,*77
1508403844.21,20051,19.0,73886.5,9.41,-31.39,-33.37,0,*7B
1508403845.45,20052,19.0,73886.8,9.41,-31.01,-32.97,0,*78
1508403846.7,20053,19.0,73886.0,9.41,-30.73,-33.03,0,*71
1508403847.95,20054,19.0,73890.3,9.39,-31.79,-34.01,0,*77
1508403849.19,20055,19.0,73890.5,9.37,-31.51,-33.77,0,*74
1508403850.39,20056,19.0,73886.3,9.37,-32.13,-34.13,0,*77
1508403851.58,20057,19.0,73888.0,9.37,-31.45,-33.83,0,*78
1508403852.81,20058,19.0,73884.3,9.37,-31.29,-33.43,0,*71
1508403854.09,20059,19.0,73890.8,9.35,-31.23,-33.43,0,*78
1508403855.34,20060,19.0,73886.3,9.35,-31.11,-33.15,0,*70
1508403856.59,20061,19.0,73886.0,9.35,-30.77,-32.91,0,*7D
1508403857.86,20062,19.0,73888.8,9.35,-31.73,-33.89,0,*73
1508403859.12,20063,19.0,73888.5,9.33,-31.23,-33.31,0,*72
1508403860.34,20064,19.0,73894.8,9.33,-31.17,-33.27,0,*75
1508403861.57,20065,19.0,73886.0,9.31,-31.45,-33.55,0,*74
1508403862.79,20066,19.0,73890.5,9.31,-31.79,-34.13,0,*7D
1508403864.04,20067,19.0,73884.8,9.27,-32.35,-34.65,0,*71
1508403865.31,20068,19.0,73886.3,9.27,-32.19,-34.19,0,*7B
1508403866.55,20069,19.0,73888.3,9.25,-31.85,-34.19,0,*7E
1508403867.78,20070,19.0,73884.5,9.25,-30.95,-33.37,0,*7D
1508403869.01,20071,19.0,73884.3,9.23,-32.57,-34.71,0,*73
1508403870.21,20072,19.0,73882.5,9.25,-32.51,-34.71,0,*70
1508403871.43,20073,19.0,73882.8,9.21,-31.67,-33.73,0,*76
1508403872.69,20074,19.0,73882.0,9.21,-31.85,-34.01,0,*7F
1508403873.97,20075,19.0,73878.3,9.19,-31.61,-33.73,0,*7D
1508403875.19,20076,19.0,73878.8,9.19,-31.17,-33.21,0,*78
1508403876.44,20077,19.0,73884.3,9.19,-30.83,-32.97,0,*79
1508403877.7,20078,19.0,73882.8,9.19,-30.67,-32.79,0,*7C
1508403878.95,20079,19.0,73882.5,9.19,-29.35,-31.33,0,*7F
1508403880.18,20080,19.0,73882.0,9.23,-28.37,-30.45,0,*73
1508403881.42,20081,19.0,73884.5,9.21,-29.39,-31.33,0,*7F
1508403882.68,20082,18.94,73882.8,9.23,-28.69,-30.77,0,*7B
1508403883.91,20083,18.94,73886.3,9.25,-28.69,-30.73,0,*78
1508403885.17,20084,19.0,73888.8,9.25,-28.63,-30.73,0,*75
1508403886.45,20085,18.94,73888.3,9.31,-28.91,-30.89,0,*79
1508403887.7,20086,19.0,73890.8,9.33,-29.29,-31.57,0,*78
1508403888.93,20087,18.94,73884.5,9.33,-29.39,-31.33,0,*7A
1508403890.16,20088,19.0,73890.8,9.33,-28.75,-30.83,0,*76
1508403891.36,20089,18.94,73890.8,9.33,-29.07,-31.17,0,*7F
1508403892.59,20090,19.0,73892.5,9.35,-28.37,-30.33,0,*74
1508403893.87,20091,18.94,73890.5,9.35,-28.09,-30.17,0,*7E
1508403895.13,20092,19.0,73890.5,9.39,-28.47,-30.39,0,*77
1508403896.36,20093,18.94,73890.8,9.39,-31.33,-33.67,0,*75
1508403897.62,20094,18.94,73890.3,9.39,-30.05,-32.19,0,*7E
1508403898.84,20095,18.94,73886.0,9.37,-30.89,-32.91,0,*75
1508403900.06,20096,18.94,73886.3,9.37,-31.33,-33.49,0,*72
1508403901.28,20097,18.94,73884.3,9.37,-30.11,-32.29,0,*75
1508403902.53,20098,18.94,73888.5,9.35,-29.95,-32.19,0,*7F
1508403903.78,20099,18.94,73888.3,9.35,-30.05,-32.23,0,*76
1508403905.05,20100,18.94,73880.3,9.35,-30.05,-32.19,0,*7E
1508403906.32,20101,18.94,73888.8,9.35,-29.73,-31.73,0,*79
1508403907.56,20102,18.94,73884.3,9.35,-29.73,-32.01,0,*7C
1508403908.81,20103,18.94,73882.8,9.35,-31.11,-33.15,0,*74
1508403910.07,20104,18.94,73888.0,9.33,-29.89,-31.91,0,*73
1508403911.31,20105,18.94,73886.5,9.35,-29.61,-31.85,0,*77
1508403912.6,20106,18.94,73888.3,9.35,-31.23,-33.27,0,*71
1508403913.78,20107,18.94,73888.8,9.33,-32.23,-34.41,0,*72
1508403915.0,20108,18.94,73888.8,9.33,-31.01,-33.09,0,*75
1508403916.25,20109,18.94,73888.8,9.31,-31.73,-34.13,0,*7F
1508403917.46,20110,18.94,73882.5,9.31,-32.13,-34.41,0,*75
1508403918.74,20111,18.94,73884.5,9.27,-31.95,-34.35,0,*7D
1508403919.99,20112,18.94,73886.8,9.27,-32.01,-34.31,0,*74
1508403921.23,20113,18.94,73884.5,9.25,-31.95,-34.31,0,*79
1508403922.45,20114,18.94,73880.3,9.23,-32.01,-34.25,0,*73
1508403923.68,20115,18.94,73882.0,9.23,-31.67,-33.67,0,*70
1508403924.93,20116,18.94,73886.8,9.23,-30.95,-33.15,0,*7A
1508403926.13,20117,18.94,73884.8,9.21,-30.45,-32.51,0,*75
1508403927.39,20118,18.94,73886.8,9.21,-31.11,-33.43,0,*78
1508403928.62,20119,18.94,73882.0,9.21,-31.73,-34.07,0,*7A
1508403929.87,20120,18.94,73886.3,9.19,-31.17,-33.31,0,*7B
1508403931.1,20121,18.94,73886.5,9.21,-30.95,-33.15,0,*7C
1508403932.3,20122,18.94,73886.5,9.21,-30.45,-32.51,0,*73
1508403933.52,20123,18.94,73886.5,9.21,-29.61,-31.73,0,*7F
1508403934.75,20124,18.94,73884.0,9.21,-29.45,-31.73,0,*7E
1508403935.95,20125,18.94,73882.3,9.21,-30.33,-32.57,0,*73
1508403937.18,20126,18.94,73888.3,9.21,-29.13,-31.29,0,*70
1508403938.45,20127,18.94,73888.5,9.23,-29.39,-31.57,0,*72
1508403939.7,20128,18.94,73888.5,9.25,-28.47,-30.55,0,*70
1508403940.92,20129,18.94,73884.3,9.25,-27.83,-29.83,0,*75
1508403942.16,20130,18.88,73886.0,9.31,-27.13,-29.29,0,*71
1508403943.39,20131,18.94,73890.0,9.33,-28.21,-30.33,0,*7F
1508403944.62,20132,18.88,73888.0,9.33,-28.91,-31.01,0,*77
1508403945.89,20133,18.88,73890.3,9.35,-28.43,-30.51,0,*7B
1508403947.14,20134,18.88,73886.5,9.35,-30.11,-32.19,0,*7C
1508403948.41,20135,18.88,73886.3,9.35,-32.19,-34.35,0,*7F
1508403949.66,20136,18.88,73884.8,9.33,-31.23,-33.31,0,*73
1508403950.91,20137,18.88,73888.0,9.33,-30.61,-32.75,0,*74
1508403952.14,20138,18.88,73892.3,9.33,-31.73,-34.07,0,*7A
1508403953.38,20139,18.94,73888.5,9.33,-31.39,-33.49,0,*78
1508403954.66,20140,18.94,73888.8,9.27,-32.19,-34.53,0,*7E
1508403955.9,20141,18.88,73880.5,9.23,-32.19,-34.41,0,*78
1508403957.17,20142,18.88,73886.3,9.23,-32.19,-34.19,0,*76
1508403958.43,20143,18.88,73888.3,9.23,-31.57,-33.67,0,*70
1508403959.68,20144,18.88,73886.5,9.23,-31.17,-33.27,0,*77
1508403960.93,20145,18.88,73886.3,9.23,-30.83,-33.09,0,*76
1508403962.16,20146,18.88,73886.5,9.21,-31.73,-34.07,0,*70
1508403963.4,20147,18.88,73884.5,9.21,-31.91,-34.19,0,*72
1508403964.66,20148,18.88,73886.0,9.19,-30.11,-32.07,0,*76
1508403965.91,20149,18.88,73886.3,9.21,-29.73,-31.91,0,*7C
1508403967.15,20150,18.88,73884.8,9.21,-31.51,-33.61,0,*70
1508403968.41,20151,18.88,73886.0,9.21,-31.73,-33.73,0,*72
1508403969.64,20152,18.88,73884.8,9.21,-29.45,-31.57,0,*79
1508403970.87,20153,18.88,73894.3,9.19,-30.11,-32.39,0,*71
1508403972.06,20154,18.88,73888.0,9.21,-29.79,-32.01,0,*70
1508403973.32,20155,18.88,73886.8,9.21,-30.51,-32.75,0,*70
1508403974.54,20156,18.88,73888.5,9.21,-31.39,-33.67,0,*7E
1508403975.77,20157,18.88,73886.0,9.21,-30.95,-33.15,0,*7D
1508403977.03,20158,18.88,73884.8,9.21,-30.77,-32.79,0,*75
1508403978.26,20159,18.88,73884.8,9.21,-31.17,-33.27,0,*79
1508403979.48,20160,18.88,73886.5,9.19,-30.11,-32.23,0,*7A
1508403980.71,20161,18.88,73886.8,9.21,-31.17,-33.43,0,*70
1508403981.96,20162,18.88,73888.5,9.19,-31.33,-33.49,0,*74
1508403983.21,20163,18.88,73882.5,9.19,-30.17,-32.13,0,*7C
1508403984.43,20164,18.88,73882.5,9.19,-31.33,-33.55,0,*7F
1508403985.69,20165,18.88,73884.8,9.19,-29.95,-32.07,0,*7D
1508403986.92,20166,18.88,73890.8,9.21,-29.89,-32.01,0,*7E
1508403988.16,20167,18.88,73886.0,9.21,-28.75,-30.83,0,*75
1508403989.39,20168,18.88,73888.3,9.21,-29.45,-31.57,0,*70
1508403990.62,20169,18.88,73886.0,9.21,-31.29,-33.43,0,*75
1508403991.86,20170,18.88,73884.8,9.21,-31.51,-33.61,0,*72
1508403993.12,20171,18.88,73886.8,9.21,-31.73,-33.89,0,*75
1508403994.37,20172,18.88,73884.5,9.19,-31.73,-33.95,0,*70
1508403995.64,20173,18.81,73884.3,9.19,-30.51,-32.63,0,*78
1508403996.87,20174,18.81,73886.5,9.17,-29.89,-32.13,0,*7B
1508403998.13,20175,18.88,73886.3,9.17,-30.17,-32.19,0,*7F
1508403999.36,20176,18.88,73888.5,9.19,-30.39,-32.57,0,*74
1508404000.62,20177,18.81,73888.8,9.19,-28.91,-31.05,0,*7A
1508404001.85,20178,18.81,73888.5,9.21,-28.63,-31.01,0,*77
1508404003.08,20179,18.81,73888.8,9.21,-29.95,-32.07,0,*7B
1508404004.27,20180,18.88,73888.3,9.21,-30.45,-32.57,0,*7D
1508404005.5,20181,18.81,73886.3,9.21,-30.23,-32.07,0,*79
1508404006.73,20182,18.81,73886.5,9.21,-29.79,-31.91,0,*71
1508404007.96,20183,18.81,73890.8,9.21,-29.61,-31.51,0,*75
1508404009.16,20184,18.81,73884.8,9.21,-30.45,-32.51,0,*7F
1508404010.36,20185,18.88,73888.8,9.21,-30.33,-32.51,0,*7F
1508404011.64,20186,18.81,73888.5,9.23,-29.73,-31.91,0,*7D
1508404012.89,20187,18.81,73886.8,9.23,-30.51,-32.51,0,*7B
1508404014.13,20188,18.81,73884.5,9.23,-30.61,-32.57,0,*71
1508404015.4,20189,18.81,73886.8,9.23,-30.51,-32.63,0,*74
1508404016.65,20190,18.81,73886.8,9.21,-30.51,-32.63,0,*7E
1508404017.9,20191,18.81,73880.8,9.21,-30.77,-33.09,0,*76
1508404019.11,20192,18.81,73884.8,9.21,-30.33,-32.39,0,*77
1508404020.36,20193,18.81,73882.8,9.21,-30.61,-32.79,0,*75
1508404021.56,20194,18.81,73882.8,9.21,-30.45,-32.51,0,*7E
1508404022.79,20195,18.81,73884.5,9.19,-30.67,-32.69,0,*7F
1508404024.04,20196,18.81,73884.5,9.21,-30.77,-32.97,0,*77
1508404025.29,20197,18.81,73880.8,9.19,-30.51,-32.69,0,*78
1508404026.49,20198,18.81,73884.5,9.21,-30.23,-32.23,0,*77
1508404027.69,20199,18.81,73886.8,9.21,-30.33,-32.51,0,*72
1508404028.93,20200,18.81,73888.0,9.21,-30.67,-32.79,0,*7A
1508404030.13,20201,18.81,73884.0,9.21,-30.45,-32.51,0,*71
1508404031.38,20202,18.81,73886.8,9.21,-29.89,-31.85,0,*70
1508404032.62,20203,18.81,73884.0,9.21,-28.91,-31.01,0,*75
1508404033.86,20204,18.81,73884.5,9.21,-30.51,-32.63,0,*70
1508404035.07,20205,18.81,73886.5,9.21,-28.85,-31.01,0,*76
1508404036.27,20206,18.81,73886.5,9.25,-29.67,-31.79,0,*73
1508404037.5,20207,18.81,73884.0,9.23,-30.67,-32.91,0,*79
1508404038.78,20208,18.81,73882.3,9.23,-31.11,-33.31,0,*7D
1508404040.01,20209,18.81,73880.5,9.21,-31.17,-33.49,0,*77
1508404041.26,20210,18.81,73886.3,9.21,-31.57,-33.89,0,*77
1508404042.48,20211,18.81,73884.3,9.19,-31.01,-33.15,0,*7B
1508404043.68,20212,18.81,73884.0,9.21,-31.01,-33.15,0,*73
1508404044.9,20213,18.81,73886.3,9.19,-31.01,-33.15,0,*79
1508404046.15,20214,18.81,73884.5,9.19,-31.05,-33.31,0,*7C
1508404047.39,20215,18.81,73882.8,9.17,-30.39,-32.45,0,*7F
1508404048.65,20216,18.75,73880.5,9.17,-30.95,-33.09,0,*73
1508404049.87,20217,18.81,73886.5,9.17,-30.23,-32.45,0,*76
1508404051.12,20218,18.81,73888.0,9.17,-30.05,-32.29,0,*77
1508404052.37,20219,18.81,73886.5,9.17,-30.73,-32.85,0,*71
1508404053.63,20220,18.75,73880.8,9.17,-31.23,-33.43,0,*74
1508404054.88,20221,18.75,73882.0,9.17,-31.51,-33.61,0,*70
1508404056.08,20222,18.81,73884.8,9.17,-31.05,-33.21,0,*76
1508404057.34,20223,18.81,73884.8,9.17,-30.73,-32.75,0,*77
1508404058.61,20224,18.75,73880.8,9.15,-30.77,-32.85,0,*79
1508404059.89,20225,18.75,73878.0,9.15,-30.73,-32.85,0,*7C
1508404061.16,20226,18.75,73878.3,9.15,-30.73,-32.75,0,*70
1508404062.41,20227,18.81,73880.5,9.15,-30.89,-33.03,0,*74
1508404063.64,20228,18.81,73880.0,9.15,-29.67,-31.79,0,*7C
1508404064.84,20229,18.81,73886.3,9.17,-29.83,-32.01,0,*79
1508404066.09,20230,18.75,73880.0,9.15,-30.77,-32.91,0,*79
1508404067.33,20231,18.75,73878.3,9.17,-31.11,-33.37,0,*76
1508404068.59,20232,18.75,73882.8,9.15,-31.39,-33.61,0,*7E
1508404069.86,20233,18.75,73884.0,9.15,-31.39,-33.61,0,*7F
1508404071.06,20234,18.75,73884.8,9.13,-32.91,-35.13,0,*7C
1508404072.31,20235,18.75,73882.5,9.11,-30.89,-33.15,0,*74
1508404073.54,20236,18.75,73886.8,9.11,-31.01,-33.21,0,*71
1508404074.77,20237,18.75,73882.8,9.09,-31.73,-33.83,0,*74
1508404076.02,20238,18.75,73878.0,9.09,-30.89,-32.97,0,*7B
1508404077.27,20239,18.75,73882.0,9.09,-30.73,-32.85,0,*7C
1508404078.48,20240,18.75,73880.0,9.09,-29.07,-31.17,0,*71
1508404079.72,20241,18.75,73884.8,9.09,-28.63,-30.67,0,*75
1508404080.95,20242,18.75,73882.8,9.11,-29.07,-31.17,0,*7A
1508404082.16,20243,18.75,73880.5,9.13,-29.23,-31.17,0,*7F
1508404083.41,20244,18.75,73882.0,9.13,-28.75,-30.95,0,*71
1508404084.64,20245,18.75,73878.5,9.15,-29.67,-31.79,0,*77
1508404085.84,20246,18.75,73882.0,9.17,-28.97,-31.05,0,*73
1508404087.05,20247,18.75,73880.3,9.17,-28.85,-31.05,0,*71
1508404088.25,20248,18.75,73882.3,9.17,-31.45,-33.55,0,*7D
1508404089.45,20249,18.75,73880.3,9.17,-31.29,-33.55,0,*76
1508404090.73,20250,18.75,73882.8,9.15,-30.77,-32.75,0,*75
1508404091.95,20251,18.75,73880.0,9.17,-30.01,-32.01,0,*74
1508404093.23,20252,18.75,73880.5,9.15,-31.11,-33.27,0,*70
1508404094.46,20253,18.75,73884.5,9.17,-30.05,-32.13,0,*71
1508404095.7,20254,18.75,73880.8,9.17,-29.35,-31.45,0,*7D
1508404096.96,20255,18.75,73876.8,9.17,-29.51,-31.61,0,*78
1508404098.18,20256,18.75,73880.8,9.17,-28.47,-30.45,0,*7A
1508404099.46,20257,18.75,73884.8,9.19,-28.79,-31.11,0,*78
1508404100.67,20258,18.75,73888.5,9.21,-29.07,-31.33,0,*74
1508404101.93,20259,18.75,73884.5,9.21,-29.39,-31.51,0,*7C
1508404103.12,20260,18.75,73884.5,9.21,-30.45,-32.57,0,*70
1508404104.35,20261,18.75,73886.0,9.21,-29.45,-31.57,0,*7A